Location: ????????
(55.3155°N, 39.2900°E)
Time: 10:05:54
(UTC+00:00)

ARIANE 6 FM1 Upper Stage - Pass Details

Date: 22 November 2025
Orbit: 522 x 612 km, 62.0° (Epoch: 07 December)

Event Time Altitude Azimuth Distance (km) Brightness Sun altitude
Rises 16:21:57 0° 303° (WNW) 2,660 7.0 -26.9°
Reaches altitude 10° 16:24:11 10° 308° (NW) 1,770 5.9 -27.2°
Enters shadow 16:26:14 28° 321° (NW) 1,010 4.3 -27.5°
